Notices

What's New in latest Release from April 7th, 2021:

- Updated Glossary, including Speed of Maximum Gust, and Total Hourly Precipitation

- Updated national and regional climate services offices contacts and prices information

- Addition of station inventory lists for 1981-2010, 1971-2000, and 1961-1990 Normals.

If you haven't already, please take our survey and provide feedback about our website: https://eccc.sondage-survey.ca/f/LanguageSelection.aspx?s=442ca660-fcf1-47c0-95a9-59707d6fd709

Hourly Data Report for November 11, 2019

PINAWA
MANITOBA
Current Station Operator: ECCC - MSC

50°10'38.020" N
96°03'53.000" W
268.00 m
503B1ER
71448
WEA

Download Data

Hourly Data (November 2019)
Hourly Data Report for November 11, 2019
TIME
LST
Temp Definition
°C
Dew Point Definition
°C
Rel Hum Definition
%
Precip. Amount Definition
mm

Wind Dir Definition
10's deg

Wind Spd Definition
km/h
Visibility Definition
km
Stn Press Definition
kPa
Hmdx Definition


Wind Chill Definition


Weather Definition


00:00 -15.3 LegendMM LegendMM 0.0 31 15   100.06   -23 LegendNANA
01:00 -15.5 LegendMM LegendMM 0.0 30 15   100.09   -24 LegendNANA
02:00 -15.9 LegendMM LegendMM 0.0 29 11   100.12   -23 LegendNANA
03:00 -16.0 LegendMM LegendMM 0.0 29 10   100.13   -22 LegendNANA
04:00 -16.2 LegendMM LegendMM 0.0 28 9   100.14   -22 LegendNANA
05:00 -15.8 LegendMM LegendMM 0.0 30 13   100.16   -23 LegendNANA
06:00 -16.1 LegendMM LegendMM 0.0 28 7   100.19   -21 LegendNANA
07:00 -16.4 LegendMM LegendMM 0.2 26 8   100.21   -22 LegendNANA
08:00 -15.4 LegendMM LegendMM 0.0 29 9   100.27   -21 LegendNANA
09:00 -15.0 LegendMM LegendMM 0.0 29 10   100.31   -21 LegendNANA
10:00 -14.4 LegendMM LegendMM 0.0 32 18   100.34   -23 LegendNANA
11:00 -14.1 LegendMM LegendMM 0.0 31 16   100.36   -22 LegendNANA
12:00 -13.7 LegendMM LegendMM 0.0 30 15   100.35   -21 LegendNANA
13:00 -13.6 LegendMM LegendMM 0.0 29 15   100.32   -21 LegendNANA
14:00 -13.4 LegendMM LegendMM 0.0 30 13   100.31   -20 LegendNANA
15:00 -13.2 LegendMM LegendMM 0.0 32 9   100.28   -19 LegendNANA
16:00 -13.2 LegendMM LegendMM 0.0 30 12   100.24   -20 LegendNANA
17:00 -14.3 LegendMM LegendMM 0.0 26 7   100.23   -19 LegendNANA
18:00 -15.1 LegendMM LegendMM 0.0 25 7   100.21   -20 LegendNANA
19:00 -16.1 LegendMM LegendMM 0.0 23 5   100.20   -20 LegendNANA
20:00 -17.1 LegendMM LegendMM 0.0 22 5   100.16   -21 LegendNANA
21:00 -17.7 LegendMM LegendMM 0.0 19 4   100.11   -21 LegendNANA
22:00 -18.2 LegendMM LegendMM 0.0 21 5   100.04   -22 LegendNANA
23:00 -17.4 LegendMM LegendMM 0.0 17 5   99.90   -21 LegendNANA

Notes on Data Quality.

Legend

  • E = Estimated
  • M = Missing
  • NA = Not Available*
  • [empty] = Indicates an unobserved value
Date modified: